"Pseudo-MPEC" for ABC0246

Created 2025 Dec 1 11:35:03 UT using Find_Orb

Click here for an explanation of pseudo-MPECs

 
 Astrometry: 
     ABC0246*KB2025 11 29.99552 07 10 09.37 +25 34 41.7    ~BUKZ 20.0 GXNEOCPJ56
     ABC0246 KB2025 11 30.01384 07 10 03.47 +25 34 44.3    ~BUKZ       XNEOCPJ56
     ABC0246 KB2025 11 30.03179 07 09 57.66 +25 34 48.5    ~BUKZ       XNEOCPJ56

Station data:
(J56) Observatorio La Avejerilla  (N27.962860 W15.546400)  Canary Islands
   (Spain).

Orbital elements:  ABC0246
   Perihelion 2025 Sep 3.823629 +/- 102 TT = 19:46:01.5 (JD 2460922.323629)
Epoch 2025 Nov 30.0 TT = JDT 2461009.5   Earth MOID: 0.0688   Ve: 0.0914
M  94.749222085 +/- 100             Me: 0.0791   Ma: 0.0167      AutoNEOCP
n   1.086868164 +/- 0.661           Peri.    9.334998 +/- 52
a   0.936881803 +/- 0.38            Node   267.031413 +/- 24
e   0.83639277 +/- 0.224            Incl.   10.766559 +/- 70
P   0.907/331.221d         H 19.66  G  0.15   U 12.5  SR
q 0.153280634 +/- 0.549    Q 1.720482971 +/- 14.2         (J2000 ecliptic)
From 3 observations 2025 Nov. 29-30 (52.2 min); mean residual 0".29
Residuals in arcseconds: 
251129 J56  .04-  .29+    251130 J56  .08+  .58-    251130 J56  .04-  .29+    

Ephemerides (geocentric):
Date (UTC) HH   RA             Dec           delta  r     elong  mag " sig PA
---- --------  ------------   ------------  ------ ------ -----  --- --------
2025 12 01 12  07 02 03.522   +25 37 56.76  .53910 1.4611 145.1 20.2 358' 107
2025 12 01 13  07 01 49.934   +25 38 00.71  .53906 1.4614 145.2 20.2 666' 112
2025 12 01 14  07 01 36.347   +25 38 04.58  .53902 1.4617 145.3 20.2 828' 111
2025 12 01 15  07 01 22.761   +25 38 08.38  .53898 1.4620 145.4 20.2 892' 110
2025 12 01 16  07 01 09.175   +25 38 12.09  .53894 1.4623 145.5 20.2 923' 110
2025 12 01 17  07 00 55.589   +25 38 15.73  .53891 1.4626 145.6 20.2 941' 109
2025 12 01 18  07 00 42.004   +25 38 19.29  .53887 1.4629 145.7 20.2 954' 109
2025 12 01 19  07 00 28.419   +25 38 22.76  .53883 1.4632 145.8 20.2 964' 109
2025 12 01 20  07 00 14.835   +25 38 26.16  .53879 1.4635 145.9 20.2 973' 109
2025 12 01 21  07 00 01.248   +25 38 29.48  .53875 1.4638 145.9 20.2 984' 108
2025 12 01 22  06 59 47.653   +25 38 32.73  .53872 1.4641 146.0 20.2  17d 108
2025 12 01 23  06 59 34.050   +25 38 35.90  .53868 1.4644 146.1 20.2  18d 108
2025 12 02 00  06 59 20.439   +25 38 38.99  .53865 1.4646 146.2 20.2  19d 109
2025 12 02 01  06 59 06.821   +25 38 42.00  .53861 1.4649 146.3 20.2  20d 109
2025 12 02 02  06 58 53.195   +25 38 44.94  .53858 1.4652 146.4 20.2  21d 109
2025 12 02 03  06 58 39.561   +25 38 47.80  .53854 1.4655 146.5 20.2  21d 109
2025 12 02 04  06 58 25.920   +25 38 50.59  .53851 1.4658 146.6 20.2  22d 109
2025 12 02 05  06 58 12.272   +25 38 53.30  .53848 1.4661 146.7 20.2  22d 109
2025 12 02 06  06 57 58.616   +25 38 55.93  .53845 1.4664 146.8 20.2  22d 109
2025 12 02 07  06 57 44.953   +25 38 58.48  .53842 1.4667 146.9 20.2  22d 109
2025 12 02 08  06 57 31.282   +25 39 00.96  .53839 1.4669 147.0 20.2  22d 109
2025 12 02 09  06 57 17.604   +25 39 03.35  .53836 1.4672 147.1 20.2  23d 109
2025 12 02 10  06 57 03.919   +25 39 05.67  .53833 1.4675 147.2 20.2  23d 109
2025 12 02 11  06 56 50.227   +25 39 07.91  .53830 1.4678 147.3 20.2  23d 109
2025 12 02 12  06 56 36.528   +25 39 10.08  .53827 1.4681 147.3 20.2  23d 109
2025 12 02 13  06 56 22.821   +25 39 12.16  .53824 1.4684 147.4 20.2  23d 109
2025 12 02 14  06 56 09.108   +25 39 14.17  .53822 1.4687 147.5 20.2  23d 109
2025 12 02 15  06 55 55.387   +25 39 16.10  .53819 1.4690 147.6 20.2  23d 108
2025 12 02 16  06 55 41.660   +25 39 17.94  .53817 1.4692 147.7 20.2  23d 108
2025 12 02 17  06 55 27.926   +25 39 19.71  .53814 1.4695 147.8 20.2  23d 108
2025 12 02 18  06 55 14.185   +25 39 21.40  .53812 1.4698 147.9 20.2  23d 108
2025 12 02 19  06 55 00.437   +25 39 23.02  .53810 1.4701 148.0 20.2  23d 108
2025 12 02 20  06 54 46.682   +25 39 24.55  .53807 1.4704 148.1 20.2  23d 108
2025 12 02 21  06 54 32.921   +25 39 26.00  .53805 1.4707 148.2 20.2  23d 108
2025 12 02 22  06 54 19.153   +25 39 27.38  .53803 1.4709 148.3 20.2  23d 108
2025 12 02 23  06 54 05.379   +25 39 28.67  .53801 1.4712 148.4 20.2  23d 108
2025 12 03 00  06 53 51.598   +25 39 29.88  .53799 1.4715 148.5 20.2  23d 108
2025 12 03 01  06 53 37.810   +25 39 31.02  .53797 1.4718 148.6 20.2  23d 108
2025 12 03 02  06 53 24.017   +25 39 32.07  .53795 1.4721 148.7 20.2  23d 108
2025 12 03 03  06 53 10.216   +25 39 33.04  .53794 1.4724 148.7 20.2  23d 108
2025 12 03 04  06 52 56.410   +25 39 33.94  .53792 1.4727 148.8 20.2  23d 108
2025 12 03 05  06 52 42.597   +25 39 34.75  .53790 1.4729 148.9 20.2  23d 108
2025 12 03 06  06 52 28.778   +25 39 35.48  .53789 1.4732 149.0 20.2  24d 109
2025 12 03 07  06 52 14.953   +25 39 36.13  .53787 1.4735 149.1 20.2  24d 109
2025 12 03 08  06 52 01.122   +25 39 36.70  .53786 1.4738 149.2 20.2  24d 109
2025 12 03 09  06 51 47.284   +25 39 37.19  .53784 1.4741 149.3 20.2  25d 109
2025 12 03 10  06 51 33.441   +25 39 37.60  .53783 1.4743 149.4 20.1  25d 109
2025 12 03 11  06 51 19.591   +25 39 37.93  .53782 1.4746 149.5 20.1  26d 109